Vorticity
7 4 4 5 8 4 -2 -4 -3 -2 9 13 8 12 10 9 8 7 5 6 5 7 7 11 15 7 6 -2 3 3 -1 1 -0 21 9 4 -2 -4 -2 2 20 1 -0 2 8
5 8 5 4 12 4 3 2 -0 -1 -2 11 11 9 13 9 8 8 6 2 9 7 6 5 7 12 8 -3 -2 -1 5 1 1 1 7 4 0 5 6 10 9 5 12 7 6
6 8 5 3 9 13 15 22 19 6 -2 -3 13 9 12 11 7 10 7 7 8 5 6 1 9 4 5 11 14 19 -1 0 0 -2 2 0 3 2 4 12 12 11 14 6 7
6 6 6 5 1 3 3 4 9 14 11 12 4 12 11 10 5 9 4 5 6 6 8 21 12 5 1 6 7 7 12 6 4 3 2 8 12 13 10 11 8 10 6 4 3
4 9 11 1 1 4 5 3 2 9 12 12 2 11 11 9 -2 17 6 4 5 6 7 3 -0 2 -0 11 5 5 7 6 7 3 4 11 12 9 10 8 9 14 14 12 7
6 5 9 7 5 2 0 2 2 8 13 8 9 5 11 13 6 12 5 4 4 6 5 2 1 1 7 1 0 -4 5 7 8 5 4 8 11 9 16 12 10 8 6 10 11
7 5 8 12 2 4 -2 -2 5 3 9 10 8 8 8 21 13 3 10 5 5 2 3 4 10 1 6 9 11 9 7 8 14 16 11 6 10 19 14 13 7 8 6 10 9
3 7 4 9 11 6 3 1 7 8 7 9 11 7 6 17 7 1 4 12 4 2 1 1 5 5 3 2 7 5 16 18 5 23 8 4 0 8 18 3 5 10 18 5 17
8 5 7 8 12 7 2 3 4 5 3 12 8 8 11 10 10 12 4 -6 15 3 3 3 0 2 4 2 10 16 3 8 -1 14 3 4 -11 4 15 7 4 -3 11 13 10
9 9 7 4 12 9 5 6 7 5 4 8 9 13 -7 36 17 4 10 13 0 10 10 6 4 4 4 2 -1 3 -19 3 5 1 8 10 -4 6 6 8 3 4 9 15 7
4 5 7 6 11 12 5 5 4 3 0 8 -9 27 -18 16 25 8 6 4 6 -7 0 3 6 1 -1 5 11 -2 19 10 2 2 5 3 3 5 6 8 9 4 6 8 5
16 5 7 9 9 15 5 -4 7 -3 7 5 8 8 15 7 6 20 6 8 1 10 11 4 -0 5 5 7 -0 0 -3 0 8 0 31 16 6 4 3 11 5 7 5 3 4
6 -0 6 4 5 11 8 6 2 2 -7 7 16 25 -6 6 10 10 9 8 7 3 3 4 -5 37 15 6 23 6 7 5 8 10 8 0 19 35 35 20 7 5 4 4 2
8 11 6 9 7 10 9 3 5 0 3 9 19 11 13 2 -2 11 13 5 5 7 7 15 12 -5 -7 -3 -8 1 -4 5 15 18 12 -3 -8 -14 -5 -11 18 12 8 5 4
23 8 3 4 12 7 21 7 -1 -1 6 22 26 8 21 17 11 1 19 14 7 -1 0 1 22 29 18 4 5 6 10 5 11 4 12 16 7 22 15 18 15 16 8 10 22
23 20 19 2 12 11 20 11 13 -4 13 13 17 25 8 13 10 11 1 13 12 14 9 15 -4 -1 10 11 16 11 10 12 10 15 27 33 4 19 32 28 24 21 26 18 12
12 -4 12 2 9 17 15 8 -22 -26 6 27 6 7 20 27 0 14 6 7 -8 0 8 -2 7 -10 1 2 13 13 8 13 14 13 2 -0 31 -32 -16 -14 -9 5 8 19 21
13 18 -1 3 17 11 20 6 -29 58 -18 14 24 19 17 19 -1 1 14 -3 7 -5 61 3 46 2 0 10 -9 14 9 -11 8 6 -0 17 10 11 6 11 17 3 8 11 16
26 2 7 -1 15 15 6 -6 -27 15 18 -11 24 22 7 3 10 15 13 -2 2 5 -31 28 -10 -3 12 22 24 13 -3 15 -21 5 18 6 6 -2 1 -1 19 2 13 11 12
4 30 15 18 12 11 6 -61 9 14 39 -11 -12 13 9 8 -7 9 -12 36 8 10 1 1 11 12 18 10 8 6 22 17 8 8 7 21 18 -8 12 1 15 8 15 7 10
27 3 27 16 15 14 9 -21 35 -29 -10 36 -6 10 26 14 1 10 21 -43 40 21 19 -6 -12 9 18 10 9 9 -5 -1 17 -22 9 4 20 12 28 -5 9 19 10 3 3
18 6 12 13 -2 20 3 4 10 8 13 31 10 5 0 19 29 -4 2 1 30 27 26 0 15 1 -9 10 18 26 5 6 -12 19 8 -1 -1 -18 -5 12 -14 3 6 5 6
-1 -0 25 9 -13 16 -6 -11 -25 -1 4 6 9 12 14 5 12 11 -8 -9 6 18 36 15 37 18 41 20 12 13 17 19 -10 -24 1 -2 4 20 8 11 -19 5 16 3 1
25 1 14 6 -22 26 -8 14 -3 1 -8 -1 -2 18 9 4 8 50 10 7 -5 11 -3 48 -9 -9 -20 -3 23 24 7 17 12 -13 -1 -8 -17 -19 -11 -22 7 27 -6 -0 1
-11 16 6 44 -34 35 3 17 -4 -7 2 -11 11 7 -1 7 20 -24 24 7 15 6 17 21 0 -2 11 15 1 2 20 34 5 12 -9 3 2 5 3 9 17 -11 3 9 13
-14 -5 -0 63 -27 14 33 16 -4 -14 3 20 -11 -13 -2 6 7 15 13 -0 -7 8 15 7 -10 23 -5 -10 6 6 9 4 9 16 19 10 -4 6 13 30 19 7 18 18 10
22 17 -5 11 -14 17 10 6 10 9 -4 9 10 -13 -14 9 15 10 28 18 -6 6 12 21 -1 10 35 29 17 29 -2 -6 -2 0 7 6 9 22 23 18 13 14 1 7 8
Height
3144 3146 3146 3148 3149 3150 3152 3152 3153 3153 3152 3153 3152 3154 3153 3153 3155 3157 3158 3161 3162 3162 3162 3162 3164 3165 3167 3169 3170 3171 3172 3172 3173 3173 3174 3174 3174 3174 3174 3174 3172 3172 3171 3171 3171
3139 3141 3143 3144 3146 3147 3148 3149 3150 3151 3151 3150 3150 3151 3152 3152 3153 3156 3159 3159 3161 3161 3161 3162 3163 3165 3168 3169 3170 3170 3170 3171 3171 3172 3171 3172 3172 3172 3172 3170 3169 3168 3168 3169 3169
3134 3137 3139 3141 3141 3143 3144 3144 3146 3147 3148 3148 3148 3148 3149 3150 3153 3155 3157 3158 3160 3160 3162 3163 3164 3165 3166 3167 3168 3168 3169 3170 3169 3170 3170 3170 3169 3169 3169 3168 3167 3165 3165 3165 3166
3130 3132 3134 3136 3137 3139 3141 3142 3143 3143 3144 3146 3146 3146 3146 3148 3153 3153 3154 3156 3158 3160 3161 3162 3163 3164 3165 3166 3166 3167 3168 3167 3167 3167 3168 3167 3167 3166 3164 3165 3164 3163 3162 3162 3162
3123 3127 3129 3132 3134 3135 3137 3139 3140 3140 3140 3142 3143 3144 3145 3146 3149 3151 3153 3154 3156 3158 3160 3161 3162 3163 3164 3164 3165 3164 3165 3164 3164 3164 3165 3164 3164 3162 3162 3161 3161 3160 3160 3160 3160
3116 3120 3123 3126 3129 3131 3134 3135 3136 3137 3137 3138 3139 3140 3143 3144 3147 3149 3150 3152 3154 3157 3158 3159 3161 3162 3162 3163 3163 3163 3162 3162 3161 3161 3160 3161 3160 3159 3159 3157 3157 3158 3158 3158 3158
3108 3112 3116 3119 3123 3126 3130 3132 3133 3133 3133 3134 3135 3136 3139 3143 3143 3147 3148 3150 3152 3155 3156 3157 3160 3161 3161 3162 3161 3161 3160 3159 3158 3158 3157 3158 3156 3155 3154 3154 3155 3155 3155 3155 3155
3102 3106 3110 3113 3116 3121 3124 3127 3129 3129 3129 3130 3132 3133 3134 3138 3138 3142 3145 3147 3149 3151 3154 3156 3158 3159 3159 3160 3159 3158 3157 3156 3156 3155 3155 3156 3154 3154 3153 3152 3152 3153 3153 3152 3152
3093 3099 3103 3107 3111 3115 3119 3122 3123 3125 3126 3127 3128 3129 3130 3131 3135 3139 3142 3145 3146 3148 3151 3153 3155 3156 3157 3157 3157 3155 3155 3154 3154 3154 3154 3154 3151 3151 3150 3149 3149 3150 3150 3149 3149
3084 3090 3096 3100 3104 3108 3113 3116 3119 3122 3123 3123 3123 3127 3125 3127 3131 3135 3139 3141 3143 3145 3148 3150 3151 3151 3153 3154 3154 3153 3152 3152 3152 3153 3152 3150 3149 3148 3148 3146 3144 3145 3146 3147 3147
3075 3082 3087 3093 3097 3102 3107 3110 3116 3117 3117 3119 3119 3119 3120 3124 3126 3130 3134 3136 3139 3141 3143 3145 3146 3146 3150 3151 3151 3151 3150 3149 3149 3150 3148 3147 3144 3145 3144 3141 3139 3140 3143 3145 3145
3064 3073 3079 3085 3090 3094 3098 3102 3109 3112 3112 3113 3113 3115 3116 3119 3121 3124 3129 3132 3134 3135 3139 3140 3140 3145 3147 3148 3149 3149 3148 3147 3146 3145 3144 3143 3139 3140 3139 3136 3136 3136 3138 3141 3142
3054 3062 3069 3077 3082 3086 3093 3101 3103 3106 3107 3107 3108 3108 3114 3116 3116 3119 3123 3126 3128 3132 3133 3133 3139 3141 3143 3144 3145 3145 3146 3145 3144 3141 3141 3140 3131 3132 3131 3130 3131 3131 3134 3135 3137
3043 3045 3058 3066 3073 3079 3086 3094 3099 3103 3103 3100 3099 3099 3104 3108 3110 3115 3118 3123 3124 3127 3131 3131 3135 3137 3138 3139 3142 3141 3143 3142 3142 3140 3139 3139 3131 3126 3127 3126 3125 3126 3128 3130 3132
3033 3039 3047 3057 3067 3071 3087 3088 3094 3101 3101 3094 3091 3093 3097 3101 3105 3108 3114 3116 3119 3122 3126 3127 3129 3132 3132 3134 3137 3138 3139 3139 3139 3137 3136 3135 3138 3119 3120 3120 3120 3121 3123 3126 3129
3022 3031 3040 3047 3057 3070 3077 3083 3091 3098 3090 3086 3085 3086 3091 3094 3100 3105 3108 3113 3117 3119 3121 3124 3127 3128 3129 3131 3133 3135 3136 3136 3134 3135 3133 3127 3131 3116 3116 3117 3117 3119 3121 3123 3126
3010 3021 3030 3040 3053 3059 3066 3075 3085 3081 3081 3079 3080 3081 3086 3088 3095 3098 3102 3105 3108 3114 3115 3119 3120 3124 3126 3128 3129 3130 3132 3133 3135 3135 3129 3125 3125 3114 3116 3116 3117 3117 3118 3118 3122
2999 3009 3021 3035 3044 3050 3059 3067 3069 3062 3071 3071 3075 3079 3082 3087 3092 3095 3098 3100 3104 3108 3110 3113 3117 3117 3118 3122 3125 3126 3128 3129 3130 3130 3126 3124 3118 3112 3113 3113 3113 3114 3115 3117 3119
2993 3001 3009 3021 3031 3043 3051 3052 3046 3053 3064 3068 3072 3076 3079 3083 3089 3092 3094 3095 3098 3102 3108 3108 3110 3112 3114 3116 3122 3122 3123 3127 3127 3126 3125 3119 3114 3111 3111 3111 3111 3112 3113 3115 3117
2981 2988 2998 3008 3023 3034 3040 3037 3044 3053 3058 3063 3066 3070 3072 3077 3082 3086 3089 3090 3092 3096 3102 3105 3107 3107 3109 3112 3115 3116 3120 3122 3123 3124 3122 3112 3112 3108 3108 3110 3110 3110 3111 3113 3114
2972 2978 2992 3000 3015 3023 3016 3030 3039 3049 3055 3058 3062 3065 3068 3071 3076 3079 3082 3086 3087 3091 3097 3102 3104 3105 3105 3105 3106 3110 3113 3116 3117 3117 3115 3115 3108 3106 3106 3108 3109 3109 3109 3109 3111
2961 2966 2973 2989 3005 3010 3013 3024 3037 3043 3049 3053 3057 3061 3065 3068 3071 3076 3077 3080 3082 3085 3089 3095 3099 3100 3102 3102 3103 3104 3106 3110 3112 3112 3111 3110 3107 3106 3106 3105 3107 3108 3108 3108 3108
2953 2960 2971 2982 2989 2997 3010 3021 3032 3037 3042 3048 3052 3056 3060 3064 3069 3071 3073 3077 3079 3081 3080 3086 3092 3096 3098 3100 3097 3097 3098 3102 3106 3107 3106 3108 3103 3102 3102 3103 3103 3103 3104 3104 3105
2939 2951 2964 2977 2988 2991 3002 3013 3025 3031 3038 3045 3049 3053 3057 3060 3064 3066 3069 3073 3075 3077 3079 3083 3087 3088 3088 3091 3093 3092 3093 3096 3100 3101 3101 3099 3099 3101 3100 3101 3101 3100 3099 3098 3098
2930 2941 2943 2956 2974 2984 2997 3007 3016 3023 3031 3039 3044 3050 3054 3057 3060 3063 3066 3069 3072 3074 3077 3081 3082 3085 3087 3089 3090 3090 3090 3091 3092 3093 3093 3091 3094 3093 3096 3096 3096 3095 3093 3092 3092
2923 2934 2943 2949 2973 2983 2991 2997 3005 3016 3022 3029 3038 3045 3050 3053 3057 3060 3062 3066 3069 3071 3074 3077 3078 3082 3084 3085 3087 3086 3087 3087 3088 3088 3088 3088 3085 3089 3089 3089 3088 3088 3088 3087 3087
2918 2929 2939 2951 2967 2976 2974 2989 2998 3011 3019 3027 3033 3040 3047 3052 3056 3059 3061 3064 3066 3067 3069 3071 3075 3077 3078 3081 3082 3081 3080 3083 3083 3083 3082 3081 3082 3083 3081 3081 3082 3082 3082 3082 3081